Hourly Data Report for October 02, 2016

All times are specified in Local Standard Time (LST). Add 1 hour to adjust for Daylight Saving Time where and when it is observed.

KUGLUKTUK A
NUNAVUT

67°49'00.000" N
115°08'38.000" W
22.60 m
2300903
71938
YCO

Download Data

Hourly Data (October 2016)
Hourly Data Report for October 2, 2016
Temp Definition
°C
Dew Point Temp Definition
°C
Rel Hum Definition
%
Wind Dir Definition
10's deg

Wind Spd Definition
km/h
Visibility Definition
km
Stn Press Definition
kPa
Hmdx Definition


Wind Chill Definition


Weather Definition


TIME
00:00 Legend Double Dagger -4.3 -6.9 82 16 4 24.1 102.79   -6 LegendNANA
01:00 Legend Double Dagger -4.8 -6.6 87 20 10 24.1 102.76   -9 LegendNANA
02:00 Legend Double Dagger -3.8 -6.4 82 19 5 24.1 102.73   -6 Mostly Cloudy
03:00 Legend Double Dagger -4.7 -6.5 87 29 5 24.1 102.68   -7 LegendNANA
04:00 Legend Double Dagger -3.6 -5.6 86 36 1 24.1 102.63   -4 LegendNANA
05:00 Legend Double Dagger -3.5 -6.1 82 33 4 24.1 102.54   -5 Mostly Cloudy
06:00 Legend Double Dagger -2.8 -5.1 84 36 2 24.1 102.48   -4 LegendNANA
07:00 Legend Double Dagger -4.3 -5.7 90 12 4 24.1 102.42   -6 LegendNANA
08:00 Legend Double Dagger -7.5 -8.2 95 20 11 24.1 102.36   -13 Mainly Clear
09:00 Legend Double Dagger -5.8 -6.9 92 20 11 24.1 102.31   -11 LegendNANA
10:00 Legend Double Dagger -3.9 -6.2 84 16 7 24.1 102.26   -7 LegendNANA
11:00 Legend Double Dagger -3.5 -6.1 82 19 13 24.1 102.18   -8 Clear
12:00 Legend Double Dagger -2.8 -5.8 80 19 12 24.1 102.09   -7 LegendNANA
13:00 Legend Double Dagger -2.2 -5.2 80 18 9 24.1 102.04   -6 LegendNANA
14:00 Legend Double Dagger -2.3 -5.6 78 21 5 24.1 101.92   -4 Mainly Clear
15:00 Legend Double Dagger -2.4 -5.1 82 19 10 24.1 101.84   -6 LegendNANA
16:00 Legend Double Dagger -3.9 -5.6 88 19 10 24.1 101.75   -8 LegendNANA
17:00 Legend Double Dagger -4.8 -6.2 90 20 11 24.1 101.66   -9 Mostly Cloudy
18:00 Legend Double Dagger -5.6 -6.4 94 18 7 24.1 101.60   -9 LegendNANA
19:00 Legend Double Dagger -6.2 -7.0 94 20 10 24.1 101.53   -11 LegendNANA
20:00 Legend Double Dagger -7.2 -7.9 95 20 10 24.1 101.47   -12 Mostly Cloudy
21:00 Legend Double Dagger -6.1 -7.2 92 22 15 24.1 101.41   -12 LegendNANA
22:00 Legend Double Dagger -6.2 -7.2 93 21 7 24.1 101.35   -10 LegendNANA
23:00 Legend Double Dagger -5.9 -6.9 93 23 15 24.1 101.26   -12 Mostly Cloudy

Notes on Data Quality.

Legend

  • E = Estimated
  • M = Missing
  • NA = Not Available
  • ‡ = Partner data that is not subject to review by the National Climate Archives
Date modified: